www.pogodaiklimat.ru
ПОГОДА в Каменск-Шахтинском

Архив погоды в Каменск-Шахтинском (Ростовская область, Россия)

Время
(UTC), дата
15 13.06
18 13.06
21 13.06
00 14.06
03 14.06
06 14.06
09 14.06
12 14.06
15 14.06
18 14.06
21 14.06
00 15.06
03 15.06
06 15.06
09 15.06
12 15.06
15 15.06
18 15.06
21 15.06
00 16.06
03 16.06
06 16.06
09 16.06
12 16.06
15 16.06
18 16.06
21 16.06
00 17.06
03 17.06
06 17.06
09 17.06
12 17.06
15 17.06
18 17.06
21 17.06
00 18.06
03 18.06
06 18.06
09 18.06
12 18.06
15 18.06
18 18.06
21 18.06
00 19.06
03 19.06
06 19.06
09 19.06
12 19.06
15 19.06
18 19.06
21 19.06
00 20.06
03 20.06
06 20.06
09 20.06
12 20.06
Ветер
(напр.,м/с)
Видим. Явления Облачность Т
(С)
Тd
(С)
f
(%)
Тe
(С)
Тes
(С)
Комфортность P
(гПа)
Po
(гПа)
Тmin
(С)
Tmax
(С)
R
(мм)
R24
(мм)
S
(см)
В 2 20 км 3/1 600 м
[Cb cap Ci fib]
+27.1 +20.1 66 +33 +36 очень душно 1010.1 1003.5 +29.2 7
СЗ 1 20 км 3/3 600 м
[Cb cap Ci fib]
+25.1 +15.5 55 +28 +28 жарко 1011.6 1004.9
СЗ 2 20 км ясно +21.4 +15.6 70 +25 +25 комфорт 1012.0 1005.3
З 2 20 км 1/0
[Ac trans]
+18.4 +15.2 82 +19 +19 1012.1 1005.3
С 1 20 км ясно +18.4 +15.9 85 +20 +22 1012.0 1005.2 +16.0
З 1 20 км 1/1 1000 м
[Cu hum]
+23.4 +15.1 60 +28 +39 душно 1012.9 1006.2
С 2 20 км ясно +27.8 +13.0 40 +29 +48 жарко 1030.6 1023.4
н/о +31.0 +10.2 28 +34 +34 душно 1010.6 1004.2
С 2 20 км 3/1 1000 м
[Cu hum Ac cast]
+30.8 +9.1 26 +30 +32 жарко 1010.0 1021.5 +31.7
ЮВ 1 20 км 1/0
[Ac cast]
+25.3 +12.0 43 +27 +27 жарко 1009.8 1003.2
ЮВ 1 20 км ясно +19.3 +14.1 72 +22 +22 комфорт 1009.4 1002.6
Ю 1 20 км 1/0
[Ac cast]
+19.5 +14.1 71 +22 +22 комфорт 1009.3 1002.5
штиль 0 20 км 3/0
[Ac cast Ci fib]
+21.2 +15.2 69 +24 +26 комфорт 1008.5 1001.7 +18.3
В 3 20 км 8/0
[Ci]
+26.9 +15.7 50 +30 +37 душно 1008.3 1001.7
В 5 20 км 8/3 1000 м
[Cu hum Cc]
+31.6 +13.8 34 +33 +39 жарко 1006.6 1000.1
ЮВ 3 {10} 20 км 9/8 600 м
[Cb cap Ci]
+33.1 +12.9 29 +34 +35 очень жарко 1005.1 998.7
З 5 20 км гроза, ливневой дождь 9/9 600 м
[Cb calv Ci fib]
+24.3 +17.4 65 +28 +28 душно 1006.0 999.4 +34.7 0.5
СЗ 2 {10} 20 км {гроза, ливн. дождь} 10/9 600 м
[Cb cap Ac cast]
+22.9 +18.0 74 +28 +28 душно 1006.6 1000.0
З 1 20 км 8/4 600 м
[Cb cap Ac trans Ci fib]
+21.3 +17.7 80 +25 +25 комфорт 1006.3 999.6
СЗ 2 {11} 20 км в посл. час ливневой дождь 9/8 600 м
[Cb cap Ac cuf]
+18.5 +17.5 94 +20 +20 1007.5 1000.7
ЮВ 2 20 км 9/6 600 м
[Cb cap Ac cuf Ci fib]
+17.8 +17.2 96 +18 +19 1017.6 1000.8 +17.5 8
В 3 20 км 3/1 1000 м
[Cu med, cong Ci fib]
+24.2 +18.1 69 +29 +36 душно 1007.9 1001.2
З 3 20 км 5/4 600 м
[Cu med, cong Ci fib]
+28.6 +16.6 48 +32 +41 душно 1009.1 1001.5
Ю 4 {11} 20 км 8/3 600 м
[Cu med, cong Ac trans Ci fib]
+29.8 +15.5 42 +33 +36 душно 1007.7 1001.2
Ю 2 {12} 20 км 9/8 600 м
[Cb cap Ci fib]
+26.2 +16.6 56 +30 +30 душно 1008.5 1001.9 +29.8
Ю 2 {12} 20 км 4/3 600 м
[Cb cap Ci fib]
+22.4 +18.8 80 +28 +28 душно 1010.0 1003.3 +29.8
ЮВ 1 20 км ясно +20.9 +17.7 82 +26 +26 душно 1011.0 1004.3
Ю 1 20 км ясно +19.6 +17.6 88 +23 +23 комфорт 1011.3 1004.6
ЮВ 2 20 км 6/3 600 м
[Cu med, cong Ac trans Ci fib]
+20.2 +17.8 86 +24 +25 комфорт 1012.4 1005.6 +18.7
Ю 2 20 км 4/3 600 м
[Cb cap Ac trans Ci fib]
+26.1 +17.9 61 +31 +37 очень душно 1012.5 1005.9
Ю 4 {10} 20 км 3/3 600 м
[Cb cap]
+28.2 +15.0 45 +31 +39 душно 1012.4 1005.8
ЮЗ 6 {11} 20 км 6/6 600 м
[Cb cap]
+30.1 +13.8 37 +32 +34 жарко 1012.2 1005.6
ЮЗ 4 {10} 20 км 3/3 600 м
[Cu med, cong]
+29.9 +14.2 38 +32 +33 жарко 1012.1 1005.6 +31.1
ЮЗ 2 20 км 3/0
[Ac trans Ci fib]
+24.4 +15.2 56 +27 +27 жарко 1013.7 1007.0
ЮЗ 2 20 км ясно +21.5 +16.9 75 +25 +25 комфорт 1013.9 1007.2
З 2 20 км ясно +20.1 +17.2 83 +24 +24 комфорт 1014.7 1007.9
СЗ 1 20 км 1/0
[Ci fib]
+21.1 +17.3 79 +25 +26 комфорт 1015.4 1008.6 +19.7
ЮЗ 1 20 км 1/1 1000 м
[Cu hum]
+26.3 +14.9 49 +29 +40 жарко 1016.1 1009.4
З 3 20 км 6/5 600 м
[Cu med, cong Ci fib]
+29.3 +13.0 37 +31 +38 жарко 1015.7 1009.2
СЗ 4 20 км 6/5 600 м
[Cb cap Ci fib]
+30.7 +14.0 36 +32 +37 жарко 1014.8 1008.2
С 4 {10} 20 км 8/4 600 м
[Cb cap Ac lent Ci fib]
+27.0 +13.7 44 +29 +30 жарко 1015.5 1008.9 +31.4
штиль 0 20 км 3/0
[Ac cast Ci fib]
+23.8 +15.8 61 +27 +27 жарко 1016.4 1009.7
ЮВ 1 20 км 3/0
[Ac cast]
+19.0 +16.2 84 +22 +22 комфорт 1017.0 1010.2
штиль 0 20 км ясно +17.9 +16.2 90 +18 +18 1017.0 1010.1
штиль 0 20 км ясно +20.7 +17.6 82 +24 +26 комфорт 1017.9 1011.1 +17.4
С 2 20 км ясно +27.3 +17.0 53 +31 +42 душно 1018.2 1011.5
СЗ 3 20 км 4/4 600 м
[Cu hum]
+30.4 +12.9 34 +31 +41 жарко 1018.0 1011.4
СЗ 3 {10} 20 км 3/3 1000 м
[Cu hum]
+31.7 +10.7 27 +31 +39 жарко 1017.1 1010.5
СЗ 2 20 км ясно +31.8 +9.2 25 +31 +34 жарко 1016.6 1010.0 +32.6
СЗ 1 20 км 1/0
[Ci fib]
+27.1 +11.5 38 +28 +28 жарко 1017.0 1010.3
штиль 0 20 км 3/0
[Ci fib]
+19.3 +13.8 70 +21 +21 комфорт 1017.5 1010.6
штиль 0 20 км ясно +17.1 +14.0 82 +17 +17 1017.2 1010.3
штиль 0 20 км ясно +20.1 +15.3 74 +22 +24 комфорт 1016.4 1009.6 +15.8
Ю 2 20 км 1/0
[Ci fib]
+30.4 +11.1 30 +31 +41 жарко 1014.9 1008.3
Ю 3 20 км 3/1 1000 м
[Cu hum Ci fib]
+32.9 +9.5 24 +32 +45 жарко 1012.6 1006.1
ЮЗ 4 20 км 3/1 1000 м
[Cu hum Ci fib]
+34.6 +9.2 21 +33 +41 жарко 1009.8 1003.4
Местоположение метеостанции Каменск-Шахтинский (Ростовская область, Россия): широта 48.30 долгота 40.30 высота над уровнем моря 58 м.
В архиве по умолчанию представлена погода в Каменск-Шахтинском за последнюю неделю. Архивные данные за месяц целиком и за предыдущие месяцы, начиная с января 2011 года, Вы можете получить, выбрав интересующий диапазон дат из раскрывающегося списка и нажав кнопку "Найти!".
*Определитесь, кто Вы:
Внимание! Время в таблицах - всемирное. Для получения местного времени необходимо прибавить поправку, которая равна 3 ч.
Некоторые строки с данными для отдельных станций могут быть выделены курсивом. Это означает, что фактические данные отсутствуют по различным причинам, а приведенные значения являются расчетными модельными данными для данного пункта наблюдений.
Смотрите также архив погоды в соседних городах и на ближайших метеорологических станциях:
Партнеры нашего сайта:      
Пояснения к столбцам:
  • Ветер - указаны скорость ветра в м/с - средняя за 10 мин, порывы в срок и между сроками (в фигурных скобках) и направление, откуда дует ветер: С - северный,
  • СВ - северо-восточный, В - восточный, ЮВ - юго-восточный, Ю - южный, ЮЗ - юго-западный, З - западный, СЗ - северо-западный.
  • Видимость - горизонтальная дальность видимости в метрах или километрах. При видимости от 1 до 10 км при отсутствии осадков обычно наблюдается дымка, при ухудшении видимости до 1 км и менее - туман. В сухую погоду видимость может ухудшаться дымом, пылью или мглою.
  • Явления - указаны атмосферные явления, наблюдавшиеся в срок или в последний час перед сроком; фигурными скобками обозначены явления, наблюдавшиеся между сроками (за 1-3 часа до срока); квадратными скобками обозначены град или гололедные отложения с указанием их диаметра в мм.
  • Облачность - указаны через наклонную черту общая и нижняя облачность в баллах и высота нижней границы облаков в метрах; квадратными скобками обозначены формы облаков: Ci - перистые, Cs - перисто-слоистые, Cc - перисто-кучевые, Ac - высококучевые, As - высокослоистые, Sc - слоисто-кучевые, Ns - слоисто-дождевые, Cu - кучевые, Cb - кучево-дождевые. Подробнее классификацию облаков см. в Атласе облаков (PDF).
  • T - Температура воздуха - температура, измеренная на высоте 2 м над землей.
  • Td - Температура точки росы - температура, при понижении до которой содержащийся в воздухе водяной пар достигнет насыщения.
  • f - Относительная влажность воздуха - влажноcть воздуха, измеренная на высоте 2 м над землей.
  • Te - Эффективная температура - температура, которую ощущает одетый по сезону человек в тени. Характеристика душности погоды. При расчете учитывается влияние влажности воздуха и скорости ветра на теплоощущения человека.
  • Tes - Эффективная температура на солнце - температура, которую ощущает человек, с поправкой на солнечный нагрев. Характеристика знойности погоды. Зависит от высоты солнца над горизонтом, облачности и скорости ветра. Ночью, в пасмурную погоду, а также при ветре 12 м/с и более поправка равна нулю.
  • P - Атмосферное давление - приведенное к уровню моря атмосферное давление.
  • Po - Атмосферное давление - измеренное на уровне метеостанции атмосферное давление.
  • Tmin - Минимальная температура - минимум температуры воздуха на высоте 2 м над землей.
  • Tmax - Максимальная температура - максимум температуры воздуха на высоте 2 м над землей.
  • R - Количество осадков - Количество выпавших осадков за период времени, мм. При наведении курсора мыши на число - период времени, за который выпало указанное количество осадков.
  • R24 - Количество осадков - Количество выпавших осадков за 24 часа, мм.
  • S - Снежный покров - Высота снежного покрова, см. При наведении курсора мыши на число - состояние снежного покрова и степень покрытия местности в баллах.